User: anonymous   Login
Location: Pilipovskiye Korichintsy
(49.1833°N, 27.4667°E)
Time: 17:19:52
(UTC+00:00)
Language:

Cosmos 468 Rocket - Orbit

View from above orbital plane
View from above orbital plane
View from above satellite
View from above satellite

Ground track
Ground track

The orbit data is extracted from the following two-line orbital elements,

1  5707U 71114B   20270.82636673  .00000003  00000-0  96774-5 0  9996
2  5707  74.0288  36.4719 0024510 172.7005 187.4511 14.38908698555046
Epoch (UTC): 26 September 2020 19:49:58
Eccentricity: 0.0024510
inclination: 74.0288°
perigee height: 744 km
apogee height: 779 km
right ascension of ascending node: 36.4719°
argument of perigee: 172.7005°
revolutions per day: 14.38908698
mean anomaly at epoch: 187.4511°
orbit number at epoch: 55504

The dashed part of the orbit path shows where the satellite is in the earth's shadow,  

DLR